Weather History for Tallahassee, FL

Change the Weather History Date:

Sunday, February 10, 2013

  Actual Average Record
Temperature  
Mean Temperature 60 °F 54 °F  
Max Temperature 75 °F 67 °F 84 °F (1957)
Min Temperature 44 °F 41 °F 14 °F (1971)
Degree Days  
Heating Degree Days 5    
Month to date heating degree days 89  
Since 1 July heating degree days 807  
Cooling Degree Days 0    
Month to date cooling degree days 0  
Year to date cooling degree days 34  
Growing Degree Days 10 (Base 50)    
Moisture  
Dew Point 49 °F    
Average Humidity 68    
Maximum Humidity 86    
Minimum Humidity 49    
Precipitation  
Precipitation 0.00 in 0.16 in 2.22 in (1990)
Month to date precipitation 0.39 1.59  
Year to date precipitation 1.24 5.93  
Sea Level Pressure  
Sea Level Pressure 30.18 in    
Wind  
Wind Speed 8 mph (SE)    
Max Wind Speed 22 mph    
Max Gust Speed 31 mph    
Visibility 10 miles    
Events      
T = Trace of Precipitation, MM = Missing Value Source: NWS Daily Summary

Daily Weather History Graph

Daily Weather History Graph

Search for Another Location

Airport:

Trip Planner

Search our weather history database for the weather conditions in past years. The results will help you decide how hot, cold, wet, or windy it might be!

Date:

Astronomy

Feb. 10, 2013 Rise Set
Actual Time 7:21 AM EST 6:21 PM EST
Civil Twilight 6:57 AM EST 6:46 PM EST
Nautical Twilight 6:28 AM EST 7:15 PM EST
Astronomical Twilight 6:00 AM EST 7:43 PM EST
Moon 7:16 AM EST (2/10) 7:04 PM EST (2/10)
Length of Visible Light 11h 49m
Length of Day
11h 00m
New Moon, 0% of the Moon is Illuminated
Feb 10
New Moon
Feb 17
First Quarter
Feb 25
Full
Mar 4
Last Quarter
Mar 11
New

Hourly Weather History & Observations

Time (EST) Temp. Dew Point Humidity Pressure Visibility Wind Dir Wind Speed Gust Speed Precip Events Conditions
12:53 AM 52.0 °F 39.9 °F 63% 30.22 in 10.0 mi East 8.1 mph - N/A   Clear
1:53 AM 51.1 °F 39.9 °F 66% 30.22 in 10.0 mi East 4.6 mph - N/A   Clear
2:53 AM 50.0 °F 39.9 °F 68% 30.22 in 10.0 mi East 3.5 mph - N/A   Clear
3:53 AM 48.0 °F 39.0 °F 71% 30.21 in 10.0 mi Calm Calm - N/A   Clear
4:53 AM 46.9 °F 39.9 °F 77% 30.19 in 10.0 mi Calm Calm - N/A   Clear
5:53 AM 45.0 °F 39.0 °F 80% 30.21 in 10.0 mi Calm Calm - N/A   Clear
6:53 AM 44.6 °F 39.2 °F 81% 30.23 in 10.0 mi Calm Calm - N/A   Partly Cloudy
7:53 AM 46.9 °F 42.1 °F 83% 30.25 in 10.0 mi Calm Calm - N/A   Mostly Cloudy
8:53 AM 54.0 °F 46.0 °F 75% 30.24 in 10.0 mi ESE 6.9 mph - N/A   Scattered Clouds
9:53 AM 61.0 °F 48.9 °F 64% 30.26 in 10.0 mi ESE 10.4 mph - N/A   Mostly Cloudy
10:53 AM 64.9 °F 50.0 °F 58% 30.25 in 10.0 mi SE 10.4 mph - N/A   Overcast
11:53 AM 69.1 °F 52.0 °F 54% 30.23 in 10.0 mi SSE 10.4 mph - N/A   Overcast
12:53 PM 72.0 °F 54.0 °F 53% 30.22 in 10.0 mi SSE 13.8 mph 23.0 mph N/A   Overcast
1:53 PM 73.0 °F 55.0 °F 53% 30.18 in 10.0 mi SSE 12.7 mph 29.9 mph N/A   Mostly Cloudy
2:53 PM 73.0 °F 55.9 °F 55% 30.16 in 10.0 mi South 16.1 mph 27.6 mph N/A   Scattered Clouds
3:53 PM 73.9 °F 54.0 °F 50% 30.14 in 10.0 mi South 18.4 mph 27.6 mph N/A   Overcast
4:53 PM 72.0 °F 55.0 °F 55% 30.11 in 10.0 mi SSE 16.1 mph 21.9 mph N/A   Scattered Clouds
5:53 PM 71.1 °F 55.0 °F 57% 30.11 in 10.0 mi SSE 9.2 mph 18.4 mph N/A   Partly Cloudy
6:53 PM 69.1 °F 55.9 °F 63% 30.12 in 10.0 mi SSE 8.1 mph - N/A   Scattered Clouds
7:53 PM 66.9 °F 55.9 °F 68% 30.12 in 10.0 mi South 6.9 mph - N/A   Mostly Cloudy
8:53 PM 66.0 °F 57.0 °F 73% 30.13 in 10.0 mi SSE 5.8 mph - N/A   Overcast
9:53 PM 66.9 °F 57.9 °F 73% 30.10 in 10.0 mi SSE 12.7 mph - N/A   Partly Cloudy
10:53 PM 66.9 °F 57.9 °F 73% 30.11 in 10.0 mi South 6.9 mph - N/A   Clear
11:53 PM 70.0 °F 57.0 °F 63% 30.12 in 10.0 mi South 9.2 mph - N/A   Overcast